Погода Зея

Погода Зея : погода сейчас, прогноз погоды и архив. Всё, что Вы хотите узнать о погоде Зея!

Хотите узнать прогноз погоды Зея? Тогда Вам сюда: Погода Зея

Поиск расширенной информации на нашем сайте:

Другие новости

Новости СМИ2

Главная страница сайта

Новости сайта

03.07.2017

Напоминаем, что на нашем специализированном сайте Метеоцентр.Азия вы можете получить высокодетализированные автоматические прогнозы погоды по пунктам России, СНГ и мира в авиационном формате (включающие направление и скорость ветра, видимость, явления погоды, количество и форму облачности, нижнюю и верхнюю границу облачности).


Погода Зея - сегодня

Время (UTC), дата Ветер
(°,м/с) 
Видим.   Явления Облачность Т
(°С)
Тd
(°С)
f(%) Тe
(°С)
Pmin
(гПа)
dP
(гПа)
Po
(мм)
O2
(г/м3)
Тmin Tmax R s Состояние
почвы
18 15.10.18 030 (СВ) 20000 м    ясно 
+1.7 -7.9 49 +1  1023.9  0.1  746  300           
21 15.10.18 030 (СВ) 20000 м    ясно 
+1 -8.2 50 1024.1  0.1  746  300           
00 16.10.18 070 (В) 1{10}  20000 м    ясно 
+2.9 -6 52 +4  1024.1  0.2  746  298  +0.2        сухая 
03 16.10.18 060 (СВ) 20000 м    ясно 
+6.4 -8.6 33 +7  1023.3  -0.4  746  295           
06 16.10.18 060 (СВ) 20000 м    ясно 
+7.2 -9.4 30 +8  1022.1  -1.1  745  293           
09 16.10.18 тихо ()   20000 м    ясно 
+3.5 -10 36 +4  1022.6  0.1  745  297           
12 16.10.18 тихо ()   20000 м    ясно 
-2.4 -8.4 63 -2  1023  -0.2  745  304    +7.6       
15 16.10.18 тихо ()   20000 м    ясно 
-4.5 -8.9 71 -5  1022.8  -0.4  745  306           
18 16.10.18 тихо ()   20000 м    ясно 
-5.6 -8.8 78 -6  1022.3  -0.7  744  307           
21 16.10.18 290 (З) 20000 м    ясно 
-5.2 -8.9 75 -7  1021.9  -0.2  744  307           
00 17.10.18 320 (СЗ) 20000 м    8/0 верхняя 
[Ci sp]
-0.7 -7.7 59 1021.6  0.1  744  301  -6.1        замёрзшая 
03 17.10.18 тихо ()   20000 м    ясно 
+9.3 -7.7 29 +9  1019.5  -1  744  290           
06 17.10.18 230 (ЮЗ) 20000 м    ясно 
+10.8 -8.2 25 +12  1017.8  -1.5  742  289           
09 17.10.18 тихо ()   20000 м    ясно 
+5.6 -8.8 35 +6  1018.8  0.4  743  294           
12 17.10.18 тихо ()   20000 м    ясно 
+1.5 -5 62 +2  1020  0.7  743  298    +11.3       
15 17.10.18 тихо ()   20000 м    3/0 верхняя 
[Ci sp]
-3.2 -7.1 74 -3  1020.8  0.4  744  304           
18 17.10.18 тихо ()   20000 м    ясно 
-4.5 -7.6 79 -5  1021  744  305           
21 17.10.18 тихо ()   20000 м    3/0 средняя 
[Ac lent]
-5.9 -7.5 88 -6  1021.1  744  307           
00 18.10.18 тихо ()   20000 м    10/0 средняя, верхняя 
[Ac As|Ci sp]
-2.8 -5.7 80 -3  1020.9  0.1  744  303  -6        замёрзшая 
03 18.10.18 180 (Ю) 20000 м    10/0 средняя 
[Ac As]
+3.7 -5.4 51 +5  1019.2  -0.9  743  296           
06 18.10.18 тихо ()   20000 м    10/0 средняя 
[Ac As]
+5.2 -5.2 47 +5  1017.4  -1.7  742  294           
09 18.10.18 тихо ()   20000 м    10/0 средняя, верхняя 
[Ac As|Ci sp]
+3.8 -5.1 52 +4  1017.3  -0.2  742  295           
15 18.10.18 тихо ()   20000 м    10/0 верхняя 
[Ci sp]
-0.3 -4.3 74 -0  1018.5  0.5  742  300           
18 18.10.18 090 (В) 20000 м    10/0 верхняя 
[Ci sp]
-3.6 -5.6 86 -3  1019.5  0.7  743  304           
21 18.10.18 010 (С) 20000 м    6/0 верхняя 
[Ci sp]
+2.9 -4.7 57 +2  1020.3  1.4  744  297           
Время (UTC), дата Ветер
(°,м/с) 
Видим.   Явления Облачность Т
(°С)
Тd
(°С)
f(%) Тe
(°С)
Pmin
(гПа)
dP
(гПа)
Po
(мм)
O2
(г/м3)
Тmin Tmax R s Состояние
почвы

Для получения пояснительной информации подведите курсор к названию столбца.

ПОГОДА Зея - архив

Всё, что Вы хотите узнать о погоде Зея - удобно и подробно!

Выберите нужную дату (начиная с 1 января 2015* года) и нажмите кнопку "Найти".
Будут отображены архивные сводки погоды по пункту Зея, начиная с указанной даты.


Отображать данные в формате CSV (для использования в таблицах Excel)


Внимание! Наш архив погоды предназначен исключительно для личного некоммерческого использования в познавательных целях. Если Вам необходимы официальные справки о состоянии погоды (для производственных, юридических, коммерческих и т.п. целей), обращайтесь в органы Росгидромета.

*Примечание: данная дата относится к архиву по метеостанциям СССР (Россия, СНГ, Балтия).
Архив по метеостанциям Зарубежной Европы и Азии (кроме Китая) хранится 10 дней, по другим регионам земного шара (Китай, Африка, Америка, Австралия, Океания) - 1 день.

Зея - район местоположения метеостанции


Название, широта, долгота, высота метеостанции:
Зея 53.7°ш. 127.3°д. 229 м над ур. моря [Российская Федерация]

Дополнительная информация

В oтличие oт бoльшинства пoгoдных сайтoв мы публикуем пoдрoбную метеoинфoрмацию в детальнoм прoфессиoнальнoм фoрмате.

Характеристики температуры и влажнoсти вoздуха измеряются на высoте 2 м в тени вдали oт зданий и деревьев.
Скoрoсть ветра измеряется на высoте 10 м (на урoвне рoста челoвека скoрoсть ветра ниже в 1.5-2 раза). Если метеoстанция нахoдится в гoрoде или в лесу, тo скoрoсть ветра занижена на 2-4 м/с пo сравнению с oткрытым местoм. Скoрoсть ветра над акватoриями крупных рек и oзёр, а также на вершинах хoлмoв на 2-5 м/с выше, чем в oбычных услoвиях.
Атмoсфернoе давление в разных тoчках местнoсти мoжет значительнo oтличаться oт давления на метеoстанции, в зависимoсти oт услoвий рельефа (при пoдъёме на 10 м давление пoнижается примернo на 1 мм рт.ст.).